HAZ8860 ZGGG-ZSHC

Flight info

Callsign HAZ8860
Flight time 1h 25m
Altitude 33100
Route BOVMA9 BOVMA W41 OMDUP G471 PLT A599 ELNEX ELNEX13
Aircraft A320/M-SDE3FGHIRWY/LB1

Departure

Time 2026-04-29 03:57
Airport Guangzhou Baiyun International Airport (ZGGG)

Arrival

Time 2026-04-29 05:22
Airport Hangzhou Xiaoshan International Airport (ZSHC)
Time Latitude Longitude Altitude Speed Heading
2026-04-29 03:29 23.38472 113.30109 59 ft 0 kts 232°
2026-04-29 03:48 23.38474 113.30113 58 ft 3 kts 232°
2026-04-29 03:48 23.38488 113.30131 58 ft 3 kts 232°
2026-04-29 03:49 23.38501 113.30150 51 ft 3 kts 232°
2026-04-29 03:49 23.38514 113.30167 52 ft 3 kts 216°
2026-04-29 03:49 23.38532 113.30176 54 ft 3 kts 173°
2026-04-29 03:49 23.38551 113.30169 55 ft 3 kts 143°
2026-04-29 03:50 23.38556 113.30164 54 ft 0 kts 142°
2026-04-29 03:52 23.38542 113.30176 53 ft 9 kts 142°
2026-04-29 03:52 23.38471 113.30236 54 ft 13 kts 142°
2026-04-29 03:52 23.38407 113.30301 56 ft 12 kts 120°
2026-04-29 03:53 23.38385 113.30388 52 ft 14 kts 104°
2026-04-29 03:53 23.38359 113.30504 56 ft 11 kts 107°
2026-04-29 03:53 23.38290 113.30526 55 ft 15 kts 193°
2026-04-29 03:53 23.38136 113.30486 54 ft 29 kts 194°
2026-04-29 03:54 23.37946 113.30434 55 ft 28 kts 193°
2026-04-29 03:54 23.37769 113.30387 52 ft 21 kts 194°
2026-04-29 03:54 23.37661 113.30358 54 ft 14 kts 185°
2026-04-29 03:54 23.37611 113.30413 51 ft 8 kts 108°
2026-04-29 03:55 23.37599 113.30465 58 ft 6 kts 104°
2026-04-29 03:55 23.37590 113.30528 58 ft 10 kts 70°
2026-04-29 03:55 23.37633 113.30551 52 ft 0 kts 14°
2026-04-29 03:56 23.37753 113.30583 54 ft 50 kts 14°
2026-04-29 03:56 23.38316 113.30735 53 ft 114 kts 14°
2026-04-29 03:56 23.39254 113.30988 54 ft 162 kts 14°
2026-04-29 03:56 23.40398 113.31313 508 ft 174 kts 11°
2026-04-29 03:57 23.41590 113.31650 1104 ft 178 kts 14°
2026-04-29 03:57 23.42776 113.31994 1928 ft 177 kts 14°
2026-04-29 03:57 23.44012 113.32357 2346 ft 193 kts 14°
2026-04-29 03:57 23.45381 113.32761 2731 ft 215 kts 15°
2026-04-29 03:58 23.46865 113.33199 3401 ft 226 kts 14°
2026-04-29 03:58 23.48405 113.33656 4125 ft 235 kts 12°
2026-04-29 03:58 23.50020 113.34134 4757 ft 247 kts 13°
2026-04-29 03:58 23.51723 113.34640 5316 ft 259 kts 11°
2026-04-29 03:59 23.53485 113.35164 6040 ft 265 kts 12°
2026-04-29 03:59 23.55278 113.35701 6815 ft 269 kts 11°
2026-04-29 03:59 23.57128 113.36109 7575 ft 273 kts
2026-04-29 03:59 23.59009 113.36469 8474 ft 276 kts
2026-04-29 04:00 23.60853 113.37008 9344 ft 284 kts 21°
2026-04-29 04:00 23.62498 113.38242 10100 ft 294 kts 44°
2026-04-29 04:00 23.63675 113.40154 10436 ft 319 kts 69°
2026-04-29 04:00 23.64259 113.42573 10696 ft 342 kts 78°
2026-04-29 04:01 23.64788 113.45194 10918 ft 366 kts 78°
2026-04-29 04:01 23.65354 113.47989 11110 ft 389 kts 78°
2026-04-29 04:01 23.65958 113.50917 11535 ft 401 kts 78°
2026-04-29 04:01 23.66581 113.53909 12129 ft 407 kts 77°
2026-04-29 04:02 23.67219 113.56933 12725 ft 412 kts 77°
2026-04-29 04:02 23.67870 113.59993 13332 ft 417 kts 77°
2026-04-29 04:02 23.68529 113.63090 13905 ft 421 kts 77°
2026-04-29 04:02 23.69188 113.66216 14406 ft 425 kts 77°
2026-04-29 04:03 23.69854 113.69376 14925 ft 429 kts 77°
2026-04-29 04:03 23.70523 113.72556 15429 ft 432 kts 77°
2026-04-29 04:03 23.71194 113.75762 15953 ft 435 kts 77°
2026-04-29 04:03 23.71869 113.78995 16448 ft 439 kts 77°
2026-04-29 04:04 23.72546 113.82260 16853 ft 443 kts 77°
2026-04-29 04:04 23.73227 113.85544 17359 ft 446 kts 77°
2026-04-29 04:04 23.73914 113.88852 17852 ft 449 kts 77°
2026-04-29 04:04 23.74607 113.92186 18321 ft 452 kts 77°
2026-04-29 04:05 23.75305 113.95539 18710 ft 454 kts 77°
2026-04-29 04:05 23.76010 113.98910 19096 ft 457 kts 77°
2026-04-29 04:05 23.76716 114.02302 19500 ft 460 kts 77°
2026-04-29 04:05 23.77424 114.05716 19896 ft 462 kts 78°
2026-04-29 04:06 23.78135 114.09147 20318 ft 465 kts 77°
2026-04-29 04:06 23.78851 114.12596 20721 ft 467 kts 77°
2026-04-29 04:06 23.79572 114.16064 21101 ft 470 kts 77°
2026-04-29 04:06 23.80295 114.19552 21483 ft 472 kts 78°
2026-04-29 04:07 23.81168 114.23014 21855 ft 475 kts 70°
2026-04-29 04:07 23.82543 114.26301 22223 ft 477 kts 60°
2026-04-29 04:07 23.84404 114.29306 22586 ft 479 kts 50°
2026-04-29 04:07 23.86699 114.31937 22935 ft 479 kts 39°
2026-04-29 04:08 23.89331 114.34180 23288 ft 481 kts 34°
2026-04-29 04:08 23.91982 114.36339 23624 ft 483 kts 35°
2026-04-29 04:08 23.94673 114.38539 23917 ft 484 kts 35°
2026-04-29 04:08 23.97374 114.40758 24204 ft 486 kts 34°
2026-04-29 04:09 24.00074 114.42982 24481 ft 487 kts 34°
2026-04-29 04:09 24.02788 114.45216 24742 ft 489 kts 34°
2026-04-29 04:09 24.05516 114.47458 24999 ft 492 kts 34°
2026-04-29 04:09 24.08258 114.49708 25279 ft 494 kts 34°
2026-04-29 04:10 24.11014 114.51966 25533 ft 495 kts 34°
2026-04-29 04:10 24.13778 114.54230 25779 ft 497 kts 34°
2026-04-29 04:10 24.16551 114.56503 26065 ft 500 kts 34°
2026-04-29 04:10 24.19343 114.58797 26250 ft 504 kts 35°
2026-04-29 04:11 24.22154 114.61111 26444 ft 507 kts 35°
2026-04-29 04:11 24.24976 114.63436 26690 ft 509 kts 35°
2026-04-29 04:11 24.27815 114.65775 26958 ft 511 kts 35°
2026-04-29 04:11 24.30661 114.68121 27211 ft 513 kts 35°
2026-04-29 04:12 24.33518 114.70476 27453 ft 515 kts 35°
2026-04-29 04:12 24.36433 114.72880 27801 ft 514 kts 35°
2026-04-29 04:12 24.39229 114.75189 28177 ft 513 kts 35°
2026-04-29 04:12 24.42078 114.77543 28511 ft 512 kts 34°
2026-04-29 04:13 24.44928 114.79901 28796 ft 513 kts 34°
2026-04-29 04:13 24.47777 114.82259 29150 ft 513 kts 35°
2026-04-29 04:13 24.50621 114.84614 29514 ft 512 kts 35°
2026-04-29 04:13 24.53461 114.86970 29868 ft 512 kts 35°
2026-04-29 04:14 24.56304 114.89330 30182 ft 512 kts 34°
2026-04-29 04:14 24.59255 114.91488 30483 ft 508 kts 26°
2026-04-29 04:14 24.62429 114.93143 30782 ft 503 kts 17°
2026-04-29 04:14 24.65757 114.94264 31099 ft 497 kts
2026-04-29 04:15 24.69134 114.95088 31421 ft 497 kts
2026-04-29 04:15 24.72510 114.95916 31705 ft 497 kts
2026-04-29 04:15 24.75881 114.96751 32008 ft 497 kts
2026-04-29 04:15 24.79249 114.97587 32351 ft 495 kts
2026-04-29 04:16 24.82611 114.98413 32689 ft 494 kts
2026-04-29 04:16 24.85966 114.99231 33009 ft 493 kts
2026-04-29 04:16 24.89322 115.00042 33144 ft 494 kts
2026-04-29 04:16 24.92686 115.00855 33167 ft 496 kts
2026-04-29 04:17 24.99444 115.02499 33155 ft 498 kts
2026-04-29 04:17 25.06216 115.04153 33165 ft 499 kts
2026-04-29 04:18 25.12989 115.05814 33172 ft 499 kts
2026-04-29 04:18 25.19763 115.07468 33171 ft 499 kts
2026-04-29 04:19 25.26544 115.09123 33188 ft 499 kts
2026-04-29 04:19 25.33360 115.09947 33186 ft 487 kts 351°
2026-04-29 04:20 25.39879 115.08498 33178 ft 472 kts 333°
2026-04-29 04:20 25.45818 115.05535 33178 ft 468 kts 329°
2026-04-29 04:21 25.51737 115.02506 33199 ft 469 kts 329°
2026-04-29 04:21 25.57655 114.99482 33206 ft 469 kts 329°
2026-04-29 04:22 25.63575 114.96445 33201 ft 469 kts 329°
2026-04-29 04:22 25.69489 114.93411 33199 ft 469 kts 329°
2026-04-29 04:23 25.75701 114.91064 33197 ft 483 kts 348°
2026-04-29 04:23 25.81340 114.91572 33198 ft 501 kts 13°
2026-04-29 04:24 25.84555 114.93118 33197 ft 509 kts 28°
2026-04-29 04:24 25.87364 114.95527 33184 ft 514 kts 43°
2026-04-29 04:24 25.92296 115.01324 33175 ft 517 kts 45°
2026-04-29 04:25 25.97203 115.07172 33166 ft 518 kts 45°
2026-04-29 04:25 26.02120 115.13040 33175 ft 519 kts 45°
2026-04-29 04:26 26.07048 115.18901 33176 ft 519 kts 45°
2026-04-29 04:26 26.11979 115.24767 33182 ft 519 kts 45°
2026-04-29 04:27 26.16911 115.30651 33182 ft 519 kts 45°
2026-04-29 04:27 26.21834 115.36534 33191 ft 519 kts 45°
2026-04-29 04:28 26.26760 115.42423 33187 ft 519 kts 45°
2026-04-29 04:28 26.31669 115.48316 33190 ft 519 kts 45°
2026-04-29 04:29 26.36587 115.54220 33176 ft 520 kts 45°
2026-04-29 04:29 26.41507 115.60129 33177 ft 520 kts 45°
2026-04-29 04:30 26.46428 115.66047 33174 ft 520 kts 45°
2026-04-29 04:31 26.53794 115.74923 33178 ft 520 kts 45°
2026-04-29 04:31 26.58700 115.80857 33164 ft 520 kts 45°
2026-04-29 04:32 26.63585 115.86766 33165 ft 521 kts 45°
2026-04-29 04:32 26.68506 115.92719 33157 ft 522 kts 45°
2026-04-29 04:33 26.73426 115.98678 33183 ft 521 kts 45°
2026-04-29 04:33 26.78366 116.04619 33172 ft 521 kts 45°
2026-04-29 04:34 26.83314 116.10548 33170 ft 521 kts 45°
2026-04-29 04:34 26.88266 116.16483 33163 ft 521 kts 45°
2026-04-29 04:35 26.93202 116.22434 33167 ft 522 kts 45°
2026-04-29 04:35 26.98144 116.28395 33179 ft 522 kts 45°
2026-04-29 04:36 27.03082 116.34354 33183 ft 521 kts 45°
2026-04-29 04:36 27.08006 116.40309 33177 ft 520 kts 45°
2026-04-29 04:37 27.12929 116.46270 33174 ft 520 kts 45°
2026-04-29 04:37 27.17849 116.52223 33183 ft 520 kts 45°
2026-04-29 04:38 27.22778 116.58186 33169 ft 521 kts 45°
2026-04-29 04:38 27.27793 116.64052 33174 ft 520 kts 44°
2026-04-29 04:39 27.32861 116.69852 33173 ft 520 kts 44°
2026-04-29 04:39 27.37908 116.75685 33169 ft 520 kts 44°
2026-04-29 04:40 27.42924 116.81569 33166 ft 521 kts 44°
2026-04-29 04:40 27.47949 116.87457 33140 ft 521 kts 44°
2026-04-29 04:41 27.52979 116.93340 33161 ft 521 kts 44°
2026-04-29 04:41 27.58026 116.99189 33151 ft 521 kts 44°
2026-04-29 04:42 27.63100 117.05028 33171 ft 521 kts 44°
2026-04-29 04:42 27.68169 117.10886 33165 ft 522 kts 44°
2026-04-29 04:43 27.73232 117.16766 33157 ft 523 kts 44°
2026-04-29 04:43 27.78293 117.22647 33148 ft 521 kts 44°
2026-04-29 04:44 27.83312 117.28483 33164 ft 523 kts 44°
2026-04-29 04:44 27.88378 117.34391 33158 ft 524 kts 44°
2026-04-29 04:45 27.93453 117.40319 33146 ft 524 kts 44°
2026-04-29 04:45 27.98535 117.46260 33171 ft 526 kts 44°
2026-04-29 04:46 28.03614 117.52200 33190 ft 525 kts 45°
2026-04-29 04:46 28.08697 117.58147 33160 ft 527 kts 45°
2026-04-29 04:47 28.13807 117.64106 33152 ft 528 kts 45°
2026-04-29 04:47 28.18931 117.70081 33158 ft 529 kts 45°
2026-04-29 04:48 28.24055 117.76064 33154 ft 529 kts 45°
2026-04-29 04:48 28.29178 117.82070 33170 ft 530 kts 45°
2026-04-29 04:49 28.34302 117.88100 33176 ft 530 kts 45°
2026-04-29 04:49 28.39427 117.94111 33177 ft 530 kts 45°
2026-04-29 04:50 28.44526 118.00154 33191 ft 530 kts 46°
2026-04-29 04:50 28.49524 118.06319 33187 ft 531 kts 47°
2026-04-29 04:51 28.54488 118.12534 33174 ft 531 kts 47°
2026-04-29 04:51 28.59482 118.18731 33183 ft 532 kts 47°
2026-04-29 04:52 28.64492 118.24913 33200 ft 531 kts 47°
2026-04-29 04:52 28.69493 118.31094 33191 ft 531 kts 47°
2026-04-29 04:53 28.74493 118.37295 33167 ft 531 kts 47°
2026-04-29 04:53 28.79480 118.43496 33190 ft 531 kts 47°
2026-04-29 04:54 28.84477 118.49711 33232 ft 532 kts 47°
2026-04-29 04:54 28.89464 118.55935 33193 ft 532 kts 47°
2026-04-29 04:55 28.94456 118.62173 33196 ft 533 kts 47°
2026-04-29 04:55 28.99455 118.68426 33180 ft 532 kts 47°
2026-04-29 04:56 29.04442 118.74677 33256 ft 532 kts 47°
2026-04-29 04:56 29.09436 118.80932 33232 ft 532 kts 47°
2026-04-29 04:57 29.14433 118.87213 32902 ft 536 kts 47°
2026-04-29 04:57 29.16937 118.90368 32330 ft 535 kts 47°
2026-04-29 04:57 29.19438 118.93522 31748 ft 535 kts 47°
2026-04-29 04:57 29.21934 118.96674 31170 ft 535 kts 47°
2026-04-29 04:58 29.24428 118.99827 30638 ft 534 kts 47°
2026-04-29 04:58 29.26927 119.02986 30063 ft 535 kts 47°
2026-04-29 04:58 29.29398 119.06105 29449 ft 536 kts 47°
2026-04-29 04:58 29.31939 119.09308 28803 ft 536 kts 47°
2026-04-29 04:59 29.34411 119.12427 28196 ft 536 kts 47°
2026-04-29 04:59 29.36915 119.15588 27600 ft 536 kts 47°
2026-04-29 04:59 29.39421 119.18754 27007 ft 535 kts 47°
2026-04-29 04:59 29.41920 119.21920 26426 ft 535 kts 47°
2026-04-29 05:00 29.44417 119.25093 25875 ft 537 kts 47°
2026-04-29 05:00 29.46916 119.28276 25343 ft 539 kts 47°
2026-04-29 05:00 29.49426 119.31479 24832 ft 540 kts 47°
2026-04-29 05:00 29.51940 119.34686 24318 ft 541 kts 47°
2026-04-29 05:01 29.54451 119.37887 23816 ft 538 kts 46°
2026-04-29 05:01 29.56951 119.41071 23236 ft 534 kts 46°
2026-04-29 05:01 29.59429 119.44226 22645 ft 529 kts 46°
2026-04-29 05:01 29.61907 119.47330 22066 ft 524 kts 43°
2026-04-29 05:02 29.64620 119.50073 21537 ft 515 kts 35°
2026-04-29 05:02 29.67538 119.52401 20976 ft 508 kts 31°
2026-04-29 05:02 29.70455 119.54670 20414 ft 505 kts 31°
2026-04-29 05:02 29.73362 119.56937 19884 ft 504 kts 32°
2026-04-29 05:03 29.76254 119.59196 19359 ft 501 kts 32°
2026-04-29 05:03 29.79126 119.61446 18843 ft 497 kts 32°
2026-04-29 05:03 29.81975 119.63684 18302 ft 493 kts 32°
2026-04-29 05:03 29.84801 119.65897 17731 ft 487 kts 31°
2026-04-29 05:04 29.87712 119.67795 17148 ft 477 kts 25°
2026-04-29 05:04 29.90634 119.69549 16579 ft 470 kts 25°
2026-04-29 05:04 29.93505 119.71280 16027 ft 461 kts 25°
2026-04-29 05:04 29.96329 119.72988 15472 ft 454 kts 25°
2026-04-29 05:05 29.99100 119.74667 14939 ft 447 kts 25°
2026-04-29 05:05 30.01766 119.76471 14386 ft 443 kts 34°
2026-04-29 05:05 30.03974 119.78915 13864 ft 439 kts 51°
2026-04-29 05:05 30.05570 119.81864 13452 ft 428 kts 63°
2026-04-29 05:06 30.06929 119.84874 13060 ft 418 kts 63°
2026-04-29 05:06 30.08253 119.87813 12683 ft 408 kts 63°
2026-04-29 05:06 30.09547 119.90691 12309 ft 399 kts 63°
2026-04-29 05:06 30.10809 119.93499 11940 ft 390 kts 63°
2026-04-29 05:07 30.12043 119.96247 11574 ft 382 kts 63°
2026-04-29 05:07 30.13252 119.98947 11214 ft 374 kts 63°
2026-04-29 05:07 30.14420 120.01595 10839 ft 362 kts 66°
2026-04-29 05:07 30.14987 120.04304 10491 ft 337 kts 94°
2026-04-29 05:08 30.14450 120.06799 10147 ft 310 kts 125°
2026-04-29 05:08 30.13611 120.08069 9898 ft 293 kts 142°
2026-04-29 05:08 30.11470 120.09787 9379 ft 272 kts 153°
2026-04-29 05:08 30.09867 120.10864 8986 ft 261 kts 153°
2026-04-29 05:09 30.08334 120.11863 8611 ft 252 kts 154°
2026-04-29 05:09 30.06834 120.12838 8236 ft 243 kts 153°
2026-04-29 05:09 30.05368 120.13771 7882 ft 240 kts 155°
2026-04-29 05:09 30.03767 120.14241 7503 ft 240 kts 183°
2026-04-29 05:10 30.02183 120.13678 7148 ft 243 kts 214°
2026-04-29 05:10 30.01049 120.12244 6785 ft 246 kts 239°
2026-04-29 05:10 30.00488 120.11076 6547 ft 247 kts 242°
2026-04-29 05:10 29.99711 120.09312 6287 ft 246 kts 243°
2026-04-29 05:11 29.98973 120.07575 6029 ft 243 kts 245°
2026-04-29 05:11 29.98577 120.05724 5768 ft 238 kts 274°
2026-04-29 05:11 29.99060 120.03956 5509 ft 230 kts 309°
2026-04-29 05:11 30.00215 120.02737 5272 ft 224 kts 330°
2026-04-29 05:12 30.01531 120.01782 5012 ft 222 kts 337°
2026-04-29 05:12 30.02970 120.01352 4745 ft 210 kts
2026-04-29 05:12 30.04329 120.01734 4585 ft 195 kts 32°
2026-04-29 05:12 30.05328 120.02696 4477 ft 183 kts 54°
2026-04-29 05:13 30.06090 120.03830 4396 ft 174 kts 54°
2026-04-29 05:13 30.06825 120.04918 4301 ft 171 kts 54°
2026-04-29 05:13 30.07552 120.05995 4193 ft 170 kts 54°
2026-04-29 05:13 30.08281 120.07061 4089 ft 169 kts 51°
2026-04-29 05:14 30.09037 120.08102 4010 ft 169 kts 56°
2026-04-29 05:14 30.09668 120.09239 3941 ft 168 kts 60°
2026-04-29 05:14 30.10239 120.10413 3940 ft 168 kts 62°
2026-04-29 05:14 30.10791 120.11610 3947 ft 169 kts 63°
2026-04-29 05:15 30.11335 120.12813 3945 ft 169 kts 63°
2026-04-29 05:15 30.11876 120.14019 3944 ft 169 kts 63°
2026-04-29 05:15 30.12417 120.15227 3943 ft 170 kts 63°
2026-04-29 05:15 30.12958 120.16437 3944 ft 169 kts 63°
2026-04-29 05:16 30.13499 120.17648 3934 ft 170 kts 63°
2026-04-29 05:16 30.14042 120.18864 3935 ft 170 kts 63°
2026-04-29 05:16 30.14584 120.20079 3937 ft 171 kts 63°
2026-04-29 05:16 30.15127 120.21297 3807 ft 169 kts 63°
2026-04-29 05:17 30.15665 120.22502 3623 ft 169 kts 63°
2026-04-29 05:17 30.16200 120.23703 3406 ft 167 kts 62°
2026-04-29 05:17 30.16734 120.24901 3181 ft 169 kts 62°
2026-04-29 05:17 30.17274 120.26112 2946 ft 168 kts 61°
2026-04-29 05:18 30.17796 120.27285 2716 ft 161 kts 62°
2026-04-29 05:18 30.18299 120.28415 2512 ft 155 kts 62°
2026-04-29 05:18 30.18786 120.29508 2293 ft 151 kts 61°
2026-04-29 05:18 30.19245 120.30540 2104 ft 139 kts 61°
2026-04-29 05:19 30.19675 120.31506 1907 ft 132 kts 60°
2026-04-29 05:19 30.20093 120.32445 1719 ft 130 kts 61°
2026-04-29 05:19 30.20506 120.33374 1534 ft 129 kts 59°
2026-04-29 05:19 30.20915 120.34293 1361 ft 128 kts 59°
2026-04-29 05:20 30.21323 120.35210 1183 ft 128 kts 59°
2026-04-29 05:20 30.21728 120.36122 1009 ft 127 kts 60°
2026-04-29 05:20 30.22134 120.37036 819 ft 130 kts 60°
2026-04-29 05:20 30.22547 120.37958 611 ft 128 kts 59°
2026-04-29 05:21 30.22952 120.38880 422 ft 130 kts 60°
2026-04-29 05:21 30.23355 120.39813 262 ft 130 kts 59°
2026-04-29 05:21 30.23793 120.40733 107 ft 131 kts 62°
2026-04-29 05:21 30.24177 120.41659 34 ft 118 kts 64°
2026-04-29 05:22 30.24488 120.42339 31 ft 71 kts 63°
2026-04-29 05:22 30.24643 120.42688 29 ft 36 kts 63°
2026-04-29 05:22 30.24715 120.42911 31 ft 25 kts 80°
2026-04-29 05:22 30.24722 120.43026 33 ft 9 kts 89°
2026-04-29 05:23 30.24723 120.43082 33 ft 5 kts 89°
2026-04-29 05:23 30.24721 120.43125 33 ft 5 kts 96°
2026-04-29 05:23 30.24702 120.43156 32 ft 11 kts 150°
2026-04-29 05:23 30.24651 120.43129 32 ft 8 kts 226°
2026-04-29 05:24 30.24598 120.43021 32 ft 22 kts 243°
2026-04-29 05:24 30.24519 120.42844 32 ft 25 kts 243°
2026-04-29 05:24 30.24446 120.42751 32 ft 12 kts 174°
2026-04-29 05:24 30.24364 120.42792 32 ft 13 kts 154°
2026-04-29 05:25 30.24303 120.42796 32 ft 7 kts 197°
2026-04-29 05:25 30.24243 120.42811 32 ft 16 kts 153°
2026-04-29 05:25 30.24170 120.42853 32 ft 7 kts 162°
2026-04-29 05:25 30.24145 120.42840 32 ft 3 kts 223°
2026-04-29 05:26 30.24132 120.42821 32 ft 2 kts 233°
2026-04-29 05:26 30.24124 120.42807 32 ft 2 kts 234°
2026-04-29 05:26 30.24121 120.42803 32 ft 0 kts 234°